Meteo Giornale » Osservazioni meteo Stati Uniti (USA) » New York City Central Park

ore: 10:51 - Osservazioni Meteo New York City Central Park
Lat. 40° 47' N Lon. 73° 58' W Alt. 47 metri s.l.m.

foschia America/New_York

8 °C

Foschia

Temp. 24 Ore

6 °C

9 °C

Est

9.3 Km/h

Dew point 7 °C

Umidità 93 %

Visibilità  5 Km

Il sole sorge alle ore 07:11

Il sole tramonta alle ore 17:03

Data e Ora Cielo e Fenomeni T °C DP °C Um. % Pres. hPa Vis. km Vento km/h
Oggi h: 10:51 foschia Foschia 8 7 93 1008 5 E 9.3
Oggi h: 10:18 foschia Foschia 7 7 100 1008 5 N 5.5
Oggi h: 09:51 foschia Foschia 7 7 100 1008 3 E/NE 7.4
Oggi h: 09:17 foschia Foschia 7 7 100 1007 2 N 5.5
Oggi h: 08:51 nebbia Nebbia 7 7 100 1007 2 E 7.4
Oggi h: 08:03 foschia Foschia 6 6 100 1007 5 E/NE 7.4
Oggi h: 07:51 foschia Foschia 6 6 100 1007 2 NE 7.4
Oggi h: 06:58 foschia Foschia 6 6 100 1007 2 N 5.5
Oggi h: 06:51 foschia Foschia 6 6 100 1007 3 N 5.5
Oggi h: 06:32 foschia Foschia 6 6 100 1007 2 N 5.5
Oggi h: 06:20 foschia Foschia 7 7 100 1007 6 N 0
Oggi h: 05:51 foschia Foschia 6 6 100 1007 6 N 0
Oggi h: 04:51 foschia Foschia 7 7 100 1007 5 N 0
Oggi h: 04:17 foschia Foschia 6 6 100 1007 6 N 0
Oggi h: 03:59 foschia Foschia 6 6 100 1007 6 N 0
Oggi h: 03:51 foschia Foschia 6 6 100 1007 6 N 0
Oggi h: 02:51 foschia Foschia 7 7 100 1008 6 N 0
Oggi h: 02:03 foschia Foschia 7 7 100 1008 5 N 0
Oggi h: 01:51 foschia Foschia 7 7 100 1008 5 N 5.5
Oggi h: 01:37 foschia Foschia 7 7 100 1008 5 N 0
Oggi h: 01:27 foschia Foschia 6 6 100 1009 2 N 0
Oggi h: 00:51 foschia Foschia 6 6 100 1009 2 O 7.4
Oggi h: 00:09 foschia Foschia 7 7 100 1009 3 N 0
Ieri h: 23:51 foschia Foschia 7 7 100 1009 2 N 0
Ieri h: 23:42 foschia Foschia 6 6 100 1009 2 N 5.5
Ieri h: 23:25 foschia Foschia 6 6 100 1009 5 N 5.5
Ieri h: 22:51 foschia Foschia 7 7 100 1010 2 N 5.5
Ieri h: 22:48 foschia Foschia 7 7 100 1010 2 N 5.5
Ieri h: 22:39 foschia Foschia 7 7 100 1009 5 N 0
Ieri h: 22:21 foschia Foschia 7 7 100 1010 2 N 5.5
Ieri h: 21:55 foschia Foschia 7 7 100 1009 2 O 11.1
Ieri h: 21:51 foschia Foschia 7 7 100 1009 5 O/NO 7.4
Ieri h: 21:31 foschia Foschia 7 7 100 1009 2 N 0
Ieri h: 21:17 foschia Foschia 7 7 100 1009 5 N 0
Ieri h: 20:51 foschia Foschia 7 7 100 1009 5 N 5.5
Ieri h: 19:51 foschia Foschia 7 7 100 1010 5 N 0
Ieri h: 19:34 foschia Foschia 7 7 100 1010 5 O/SO 11.1
Ieri h: 18:51 foschia Foschia 7 7 100 1010 6 O 9.3
Ieri h: 17:51 foschia Foschia 7 7 100 1010 8 N 0
Ieri h: 17:36 foschia Foschia 7 7 100 1010 8 O 9.3
Ieri h: 17:20 foschia Foschia 7 7 100 1010 10 N 7.4
Ieri h: 16:51 foschia Foschia 7 6 93 1010 6 O/SO 9.3
Ieri h: 16:04 foschia Foschia 7 6 93 1010 6 N 0
Ieri h: 15:51 foschia Foschia 7 6 93 1010 6 N 5.5
Ieri h: 15:10 foschia Foschia 7 6 93 1010 8 N 9.3
Ieri h: 14:51 foschia Foschia 8 6 87 1010 8 N 5.5
Ieri h: 13:51 foschia Foschia 9 6 81 1010 10 N 0
Ieri h: 13:29 nuvoloso Nuvoloso 8 6 87 1010 11 O 7.4
Ieri h: 12:51 foschia Foschia 7 6 93 1010 10 N 0
Ieri h: 11:51 foschia Foschia 6 5 93 1012 10 O/NO 11.1
Ieri h: 10:51 foschia Foschia 6 5 93 1012 8 O 9.3